Regional Weather Roundup
Issued by NWS Boston, MA

Home | Current Version | Previous Version | Text Only | Print | Product List | Glossary On
Versions: 1 2 3 4 5 6 7 8 9 10 11 12 13 14 15 16 17 18 19 20 21 22 23 24 25 26 27
000
ASUS41 KBOX 260210
RWRBOX

REGIONAL WEATHER ROUNDUP
NATIONAL WEATHER SERVICE TAUNTON MA
1000 PM EDT MON JUL 25 2016

NOTE:  "FAIR" INDICATES FEW OR NO CLOUDS BELOW 12,000 FEET WITH NO
SIGNIFICANT WEATHER AND/OR OBSTRUCTIONS TO VISIBILITY.  THE FOLLOWING
OBSERVATION LOCATIONS DO NOT REPORT PRESENT WEATHER...PROVINCETOWN...
SMITHFIELD...BLOCK ISLAND...KEENE...AND OXFORD.

MAZALL-260300-
EASTERN MASSACHUSETTS

CITY           SKY/WX    TMP DP  RH WIND       PRES   REMARKS
BOSTON         CLOUDY    79  70  74 SW17      29.78S
BEVERLY        MOCLDY    80  70  71 SW9       29.77S
LAWRENCE       CLOUDY    83  70  64 S6        29.78F
BEDFORD        CLOUDY    81  68  64 SW12      29.77R
BLUE HILL        N/A     74  70  87 S14       29.80F
NORWOOD        CLOUDY    78  71  79 S8        29.78F
MARSHFIELD     MOCLDY    77  72  83 SW9G17    29.78F
PLYMOUTH       CLOUDY    76  71  85 SW9       29.81F
TAUNTON        CLOUDY    77  70  79 SW6       29.79F
NEW BEDFORD    CLOUDY    77  72  84 SW10      29.80F
$$

MAZALL-260300-
CAPE COD AND THE ISLANDS

CITY           SKY/WX    TMP DP  RH WIND       PRES   REMARKS
FALMOUTH       CLOUDY    75  72  88 SW12G17   29.82F
HYANNIS        CLOUDY    76  71  85 S12       29.81F
CHATHAM        CLOUDY    74  71  91 SW12G20   29.85F
PROVINCETOWN   CLOUDY    74  69  85 S16       29.81F
NANTUCKET      CLOUDY    72  71  97 S13       29.86F
MARTHAS VNYRD  CLOUDY    73  70  90 SW9       29.84F
$$

MAZALL-260300-
CENTRAL AND WESTERN MASSACHUSETTS

CITY           SKY/WX    TMP DP  RH WIND       PRES   REMARKS
WORCESTER      CLOUDY    76  67  73 W15       29.84R
FITCHBURG      CLOUDY    83  68  60 SW7       29.80R
ORANGE         CLOUDY    80  69  69 W7        29.83R
SPRINGFIELD    MOCLDY    77  70  78 S6        29.82R
WESTFIELD      CLOUDY    79  69  71 VRB5      29.83R
NORTH ADAMS    PTCLDY    75  68  78 W9        29.86R
PITTSFIELD     CLOUDY    72  68  87 SW9       29.89R
$$

RIZALL-260300-
RHODE ISLAND

CITY           SKY/WX    TMP DP  RH WIND       PRES   REMARKS
PROVIDENCE     LGT RAIN  77  71  82 W9        29.81F
NEWPORT        LGT RAIN  73  72  96 S6        29.80F
BLOCK ISLAND   CLOUDY    74  73  97 SW12      29.82F
SMITHFIELD     CLOUDY   N/A N/A N/A SW5       29.80F
WESTERLY       LGT RAIN  75  71  87 SW8       29.80F
$$

CTZALL-260300-
CONNECTICUT

CITY           SKY/WX    TMP DP  RH WIND       PRES   REMARKS
BRADLEY INTL   MOCLDY    76  71  85 W7        29.82R
HARTFORD       MOCLDY    78  70  76 NW5       29.83R
BRIDGEPORT     CLOUDY    74  71  91 W8        29.84R
DANBURY        CLOUDY    71  69  93 W5        29.89R
GROTON         LGT RAIN  74  72  93 S6        29.78F FOG
NEW HAVEN      CLOUDY    73  71  93 W6        29.83R
CHESTER        FAIR      73  72  94 SW8       29.82R
MERIDEN        CLOUDY    74  70  87 W5        29.84R
WILLIMANTIC    NOT AVBL
OXFORD           N/A     70  66  88 NW5       29.88R
$$

MEZ002-015-021-024-NHZ003-005-008-011-012-014-VTZ005-008-260300-
NORTHERN NEW ENGLAND

CITY           SKY/WX    TMP DP  RH WIND       PRES   REMARKS
PORTLAND ME    CLOUDY    71  69  93 N3        29.76F
BANGOR ME      CLOUDY    73  62  68 SW5       29.80R
CONCORD NH     CLOUDY    74  69  85 SE5       29.79S
MANCHESTER NH  CLOUDY    76  72  87 CALM      29.77S
NASHUA NH      CLOUDY    79  70  74 W7        29.78S
PORTSMOUTH NH  CLOUDY    72  70  93 NW2       29.76R
JAFFREY NH     CLOUDY    79  66  64 SW5       29.84S
KEENE NH       CLOUDY    78  69  73 SW3       29.83
BURLINGTON VT  FAIR      76  68  76 S6        29.76S
MT. WASHINGTON FOG       55  55 100 W28         N/A  VSB 0
$$

NYZ052-076-260300-
EASTERN NEW YORK

CITY           SKY/WX    TMP DP  RH WIND       PRES   REMARKS
ALBANY         PTCLDY    75  69  81 SW6       29.84R
NEW YORK CITY  CLOUDY    78  74  87 SW9       29.87S
$$

ANZALL-260300-
MARINE OBSERVATIONS

STATION/POSITION TIME  TEMP    WIND        PRES    VSBY  WAVE
                       AIR SEA DIR/SP/G                  HT/PER
                 (UTC) (F)     (DEG/KT/KT) (MB)    (MI)  (FT/S)
BOSTON BUOY      0150   74 71  170/ 10/ 12 1008.2F         1/ 3
BUZZARDS BAY     0100   73     230/ 20/ 22 1011.1R
NANTUCKET SOUND  0150   75 72  220/ 16/ 19 1010.1F         2/ 3
MASS BAY-STELLWA 0104   72 69  190/ 12/ 14 1008.3F  1 7/8  2/ 4
ISLE OF SHOALS   0100   72      80/  8/  8 1007.8F
S OF BLOCK IS    0125      72                N/A           3/ 6
$$

......................KEY.........................
  SKY/WX - SKY CONDITION/PRESENT WEATHER
  TMP    - TEMPERATURE IN FAHRENHEIT
  DWPT   - DEWPOINT IN FAHRENHEIT
  RH     - RELATIVE HUMIDITY IN PERCENT
  WIND   - DIRECTION AND SPEED IN MPH
  PRES   - MEAN SEA LEVEL PRESSURE IN INCHES OF HG
  WCI    - WIND CHILL INDEX
  VSB    - VISIBILITY IN MILES
  HX     - HEAT INDEX
  TC     - TEMPERATURE IN CELSIUS
  VRB    - VARIABLE WIND DIRECTION
  N/A    - NOT AVAILABLE




USA.gov is the U.S. government's official web portal to all federal, state and local government web resources and services.